Change the Weather History Date:

Sunday, July 22, 2012

  Actual Average Record
Temperature  
Mean Temperature 84 °F 76 °F  
Max Temperature 97 °F 86 °F 107 °F (1901)
Min Temperature 70 °F 65 °F 52 °F (2000)
Degree Days  
Heating Degree Days 0 0  
Month to date heating degree days 0  
Since 1 June heating degree days 15  
Since 1 July heating degree days 0  
Cooling Degree Days 19 11  
Month to date cooling degree days 396 242  
Year to date cooling degree days 910 586  
Since 1 June cooling degree days 653 482  
Growing Degree Days 34 (Base 50)    
Moisture  
Dew Point 61 °F    
Average Humidity 53    
Maximum Humidity 79    
Minimum Humidity 27    
Precipitation  
Precipitation T in 0.13 in 1.31 in (1993)
Month to date precipitation 0.34 2.86  
Year to date precipitation 14.79 21.33  
Snow  
Snow 0.00 in 0.00 in 0.00 in ()
Month to date snowfall 0.0 0.0  
Since 1 June snowfall 0.0 0.0  
Since 1 July snowfall 0.0 0.0  
Snow Depth 0.00 in    
Sea Level Pressure  
Sea Level Pressure 30.06 in    
Wind  
Wind Speed 5 mph (South)    
Max Wind Speed 15 mph    
Max Gust Speed 21 mph    
Visibility 10 miles    
Events      
T = Trace of Precipitation, MM = Missing Value Source: NWS Daily Summary

Daily Weather History Graph

Daily Weather History Graph

Search for Another Location

Airport or City:

Trip Planner

Search our weather history database for the weather conditions in past years. The results will help you decide how hot, cold, wet, or windy it might be!

Date:

Astronomy

Jul. 22, 2012 Rise Set
Actual Time 5:49 AM CDT 8:20 PM CDT
Civil Twilight 5:17 AM CDT 8:51 PM CDT
Nautical Twilight 4:39 AM CDT 9:30 PM CDT
Astronomical Twilight 3:55 AM CDT 10:13 PM CDT
Moon 9:34 AM CDT (7/22) 10:04 PM CDT (7/22)
Length of Visible Light 15h 33m
Length of Day
14h 31m
Waxing Crescent, 13% of the Moon is Illuminated
Jul 22
Waxing Crescent
Jul 26
First Quarter
Aug 1
Full
Aug 9
Last Quarter
Aug 17
New

Hourly Weather History & Observations

Time (CDT) Temp. Heat Index Dew Point Humidity Pressure Visibility Wind Dir Wind Speed Gust Speed Precip Events Conditions
12:52 AM 78.1 °F - 64.9 °F 64% 30.05 in 10.0 mi ESE 3.5 mph - N/A   Clear
1:52 AM 73.9 °F - 64.0 °F 71% 30.04 in 10.0 mi Calm Calm - N/A   Clear
2:52 AM 72.0 °F - 64.0 °F 76% 30.04 in 10.0 mi Calm Calm - N/A   Clear
3:52 AM 71.1 °F - 64.0 °F 78% 30.05 in 10.0 mi Calm Calm - N/A   Clear
4:52 AM 71.1 °F - 62.1 °F 73% 30.06 in 10.0 mi South 4.6 mph - N/A   Clear
5:52 AM 72.0 °F - 60.1 °F 66% 30.07 in 10.0 mi South 3.5 mph - N/A   Clear
6:52 AM 75.0 °F - 61.0 °F 62% 30.08 in 10.0 mi South 4.6 mph - N/A   Clear
7:52 AM 80.1 °F 80.9 °F 60.1 °F 50% 30.10 in 10.0 mi SW 4.6 mph - N/A   Clear
8:52 AM 84.0 °F 83.8 °F 59.0 °F 43% 30.11 in 10.0 mi SW 5.8 mph - N/A   Clear
9:52 AM 88.0 °F 86.9 °F 57.9 °F 36% 30.12 in 10.0 mi SSW 5.8 mph - N/A   Clear
10:52 AM 90.0 °F 88.1 °F 55.9 °F 31% 30.14 in 10.0 mi Variable 4.6 mph - N/A   Scattered Clouds
11:52 AM 91.9 °F 90.8 °F 57.9 °F 32% 30.11 in 10.0 mi Variable 3.5 mph - N/A   Clear
12:52 PM 93.0 °F 92.0 °F 57.9 °F 31% 30.09 in 10.0 mi Calm Calm - N/A   Clear
1:52 PM 93.9 °F 93.2 °F 59.0 °F 31% 30.07 in 10.0 mi Variable 4.6 mph - N/A   Clear
2:52 PM 95.0 °F 94.8 °F 60.1 °F 31% 30.04 in 10.0 mi South 9.2 mph - N/A   Clear
3:52 PM 95.0 °F 95.2 °F 61.0 °F 32% 30.01 in 10.0 mi South 13.8 mph 19.6 mph N/A   Clear
4:52 PM 96.1 °F 95.6 °F 59.0 °F 29% 30.01 in 10.0 mi South 9.2 mph - 0.00 in   Clear
5:52 PM 96.1 °F 95.2 °F 57.9 °F 28% 30.01 in 10.0 mi SSW 8.1 mph - 0.00 in   Clear
6:52 PM 93.9 °F 94.0 °F 61.0 °F 33% 30.01 in 10.0 mi SW 5.8 mph - N/A   Clear
7:52 PM 89.1 °F 89.0 °F 61.0 °F 39% 30.02 in 10.0 mi SSW 5.8 mph - N/A   Clear
8:52 PM 84.0 °F 84.4 °F 61.0 °F 46% 30.02 in 10.0 mi South 4.6 mph - N/A   Clear
9:52 PM 80.1 °F 81.1 °F 61.0 °F 52% 30.03 in 10.0 mi South 3.5 mph - N/A   Clear
10:52 PM 80.1 °F 81.2 °F 62.1 °F 54% 30.03 in 10.0 mi SSE 5.8 mph - N/A   Clear
11:52 PM 80.1 °F 81.1 °F 61.0 °F 52% 30.04 in 10.0 mi South 5.8 mph - N/A   Clear